GW4220 Weather Reports


time (UTC)temp
C
wind
direction
speed
KPH
gust
KPH
rain 1hr
cm
rain 24hr
cm
rain mn
cm
humidity
%
barometer
mb
20260510180033 21 181 8.0 9.7 0.00 0.00 0.00 61 1015.3
20260510175533 21 207 6.4 6.4 0.00 0.00 0.00 62 1015.4
20260510175029 21 200 6.4 6.4 0.00 0.00 0.00 61 1015.4
20260510174528 21 263 1.6 3.2 0.00 0.00 0.00 61 1015.4
20260510174024 21 109 0.0 0.0 0.00 0.00 0.00 62 1015.2
20260510173519 21 110 0.0 1.6 0.00 0.00 0.00 63 1015.4
20260510173016 20 204 8.0 9.7 0.00 0.00 0.00 63 1015.4
20260510172512 20 177 6.4 9.7 0.00 0.00 0.00 63 1015.3
20260510172009 21 266 4.8 6.4 0.00 0.00 0.00 62 1015.5
20260510171506 21 119 0.0 0.0 0.00 0.00 0.00 63 1015.4
20260510171002 21 108 3.2 3.2 0.00 0.00 0.00 65 1015.5
20260510170459 20 180 3.2 3.2 0.00 0.00 0.00 63 1015.7
20260510165955 20 208 6.4 6.4 0.00 0.00 0.00 63 1015.7
20260510165451 20 237 8.0 9.7 0.00 0.00 0.00 64 1015.7
20260510164948 20 183 8.0 11.3 0.00 0.00 0.00 64 1015.5
20260510164445 20 230 8.0 11.3 0.00 0.00 0.00 64 1015.6
20260510163940 20 188 1.6 1.6 0.00 0.00 0.00 64 1015.4
20260510163436 20 113 3.2 4.8 0.00 0.00 0.00 64 1015.5
20260510162931 20 126 1.6 3.2 0.00 0.00 0.00 66 1015.5
20260510162429 19 222 3.2 4.8 0.00 0.00 0.00 68 1015.7
20260510161925 19 225 8.0 9.7 0.00 0.00 0.00 68 1015.8
20260510161420 20 111 0.0 0.0 0.00 0.00 0.00 68 1015.8
20260510160918 20 155 6.4 6.4 0.00 0.00 0.00 69 1016.0
20260510160414 20 197 3.2 4.8 0.00 0.00 0.00 70 1015.7
20260510155907 19 72 4.8 4.8 0.00 0.00 0.00 71 1016.0
20260510155405 19 20 1.6 3.2 0.00 0.00 0.00 70 1016.1
20260510154900 18 106 1.6 3.2 0.00 0.00 0.00 70 1016.0
20260510154357 18 207 6.4 6.4 0.00 0.00 0.00 70 1015.8
20260510153850 18 138 1.6 3.2 0.00 0.00 0.00 71 1015.8
20260510153347 18 238 9.7 12.9 0.00 0.00 0.00 72 1015.8
20260510152844 18 211 9.7 11.3 0.00 0.00 0.00 73 1015.8
20260510152341 18 233 9.7 11.3 0.00 0.00 0.00 73 1015.7
20260510151837 18 175 3.2 4.8 0.00 0.00 0.00 74 1015.7
20260510151335 18 284 8.0 11.3 0.00 0.00 0.00 74 1015.7
20260510150831 18 118 3.2 3.2 0.00 0.00 0.00 76 1016.2
20260510150327 18 117 6.4 6.4 0.00 0.00 0.00 76 1015.8
20260510145823 17 131 0.0 0.0 0.00 0.00 0.00 77 1015.6
20260510145319 17 274 3.2 6.4 0.00 0.00 0.00 78 1016.0
20260510144816 17 167 8.0 11.3 0.00 0.00 0.00 79 1015.8
20260510144313 17 180 1.6 3.2 0.00 0.00 0.00 79 1015.5
20260510143812 17 202 3.2 4.8 0.00 0.00 0.00 81 1015.8
20260510143309 17 120 3.2 3.2 0.00 0.00 0.00 82 1016.0
20260510142806 17 228 8.0 11.3 0.00 0.00 0.00 83 1015.8
20260510142305 16 196 1.6 3.2 0.00 0.00 0.00 84 1015.8
20260510141800 16 258 6.4 6.4 0.00 0.00 0.00 85 1016.0
20260510141258 16 161 6.4 9.7 0.00 0.00 0.00 86 1015.7
20260510140754 16 156 4.8 6.4 0.00 0.00 0.00 87 1015.8
20260510140250 15 116 4.8 6.4 0.00 0.00 0.00 88 1015.7
20260510135744 15 155 6.4 9.7 0.00 0.00 0.00 90 1015.8
20260510135239 15 230 6.4 9.7 0.00 0.00 0.00 91 1015.8
20260510134737 15 210 3.2 3.2 0.00 0.00 0.00 92 1015.7
20260510134234 15 158 3.2 4.8 0.00 0.00 0.00 93 1015.7
20260510133730 15 157 9.7 11.3 0.00 0.00 0.00 93 1016.0
20260510133225 14 182 4.8 6.4 0.00 0.00 0.00 94 1016.0
20260510132722 14 160 9.7 12.9 0.00 0.00 0.00 94 1016.2
20260510132219 14 167 6.4 6.4 0.00 0.00 0.00 95 1016.1
20260510131716 14 204 6.4 9.7 0.00 0.00 0.00 95 1016.1
20260510131215 13 234 6.4 6.4 0.00 0.00 0.00 95 1016.2
20260510130710 13 186 8.0 11.3 0.00 0.00 0.00 96 1016.0
20260510130208 13 214 6.4 9.7 0.00 0.00 0.00 96 1016.1
20260510125704 13 176 4.8 4.8 0.00 0.00 0.00 96 1015.8
20260510125200 13 138 3.2 3.2 0.00 0.00 0.00 96 1016.2
20260510124657 13 219 3.2 4.8 0.00 0.00 0.00 97 1016.1
20260510124155 12 253 3.2 3.2 0.00 0.00 0.00 96 1016.0
20260510123650 12 162 3.2 3.2 0.00 0.00 0.00 97 1016.1
20260510123146 12 155 3.2 3.2 0.00 0.00 0.00 97 1015.8
20260510122643 12 147 3.2 3.2 0.00 0.00 0.00 97 1015.7
20260510122138 11 162 0.0 1.6 0.00 0.00 0.00 97 1015.6
20260510121635 11 167 3.2 4.8 0.00 0.00 0.00 97 1015.7
20260510121132 11 164 4.8 6.4 0.00 0.00 0.00 97 1015.6
20260510120630 11 156 3.2 3.2 0.00 0.00 0.00 97 1015.5
20260510120125 11 168 3.2 3.2 0.00 0.00 0.00 97 1015.7
20260510115622 11 141 0.0 0.0 0.00 0.00 0.00 97 1015.5
20260510115120 11 126 0.0 0.0 0.00 0.00 0.00 97 1015.8
20260510114615 11 126 0.0 0.0 0.00 0.00 0.00 97 1015.7
20260510114112 11 124 0.0 0.0 0.00 0.00 0.00 97 1015.5
20260510113607 11 107 0.0 0.0 0.00 0.00 0.00 97 1015.4
20260510113105 11 136 0.0 0.0 0.00 0.00 0.00 97 1015.4
20260510112601 11 146 0.0 0.0 0.00 0.00 0.00 97 1015.2
20260510112058 11 115 0.0 0.0 0.00 0.00 0.00 97 1015.3
20260510111554 11 128 0.0 0.0 0.00 0.00 0.00 97 1015.2
20260510111050 11 113 0.0 0.0 0.00 0.00 0.00 98 1015.1
20260510110541 10 94 0.0 1.6 0.00 0.00 0.00 98 1015.3
20260510110037 10 97 0.0 0.0 0.00 0.00 0.00 97 1014.9
20260510105533 10 100 0.0 0.0 0.00 0.00 0.00 97 1015.0
20260510105028 10 100 0.0 0.0 0.00 0.00 0.00 97 1014.9
20260510104525 10 111 0.0 0.0 0.00 0.00 0.00 97 1014.7
20260510104020 10 96 0.0 0.0 0.00 0.00 0.00 97 1014.9
20260510103518 10 109 0.0 0.0 0.00 0.00 0.00 97 1014.7
20260510103014 10 108 0.0 0.0 0.00 0.00 0.00 97 1014.8
20260510102510 10 115 0.0 0.0 0.00 0.00 0.00 97 1014.9
20260510102006 10 116 0.0 0.0 0.00 0.00 0.00 97 1015.0
20260510101504 10 107 0.0 0.0 0.00 0.00 0.00 97 1015.0
20260510101002 10 101 0.0 0.0 0.00 0.00 0.00 97 1014.7
20260510100458 10 107 0.0 0.0 0.00 0.00 0.00 97 1014.6
20260510095954 10 97 1.6 1.6 0.00 0.00 0.00 97 1014.6
20260510095450 10 99 0.0 0.0 0.00 0.00 0.00 97 1014.8
20260510094949 10 124 0.0 0.0 0.00 0.00 0.00 97 1014.6
20260510094444 10 130 0.0 0.0 0.00 0.00 0.00 97 1014.4
20260510093941 10 141 0.0 0.0 0.00 0.00 0.00 97 1014.3
20260510093436 10 107 1.6 1.6 0.00 0.00 0.00 97 1014.2
20260510092934 10 143 1.6 1.6 0.00 0.00 0.00 97 1014.3
20260510092431 10 132 0.0 1.6 0.00 0.00 0.00 97 1014.4
20260510091929 10 140 1.6 1.6 0.00 0.00 0.00 97 1014.5
20260510091427 10 153 3.2 3.2 0.00 0.00 0.00 97 1014.1
20260510090924 10 137 3.2 3.2 0.00 0.00 0.00 97 1014.0
20260510090420 10 159 6.4 6.4 0.00 0.00 0.00 97 1013.9
20260510085916 10 167 3.2 3.2 0.00 0.00 0.00 97 1014.1
20260510085412 10 102 0.0 0.0 0.00 0.00 0.00 97 1014.1
20260510084907 10 155 3.2 3.2 0.00 0.00 0.00 97 1014.3
20260510084405 10 159 4.8 4.8 0.00 0.00 0.00 97 1014.6
20260510083901 10 151 1.6 1.6 0.00 0.00 0.00 97 1014.4
20260510083358 10 160 3.2 3.2 0.00 0.00 0.00 97 1014.2
20260510082853 10 118 0.0 0.0 0.00 0.00 0.00 97 1014.5
20260510082350 10 128 3.2 4.8 0.00 0.00 0.00 97 1014.3
20260510081850 10 124 1.6 1.6 0.00 0.00 0.00 97 1014.3
20260510081346 10 81 3.2 3.2 0.00 0.00 0.00 97 1014.6
20260510080843 10 155 3.2 4.8 0.00 0.00 0.00 97 1015.0
20260510080342 10 155 1.6 1.6 0.00 0.00 0.00 97 1015.0
20260510075840 10 151 1.6 3.2 0.00 0.00 0.00 97 1014.9
20260510075337 10 152 4.8 6.4 0.00 0.00 0.00 97 1014.7
20260510074834 10 141 6.4 6.4 0.00 0.00 0.00 97 1014.6
20260510074331 10 135 3.2 3.2 0.00 0.00 0.00 97 1015.0
20260510073827 10 119 0.0 1.6 0.00 0.00 0.00 97 1015.2
20260510073317 10 136 1.6 1.6 0.00 0.00 0.00 97 1015.3
20260510072813 10 150 3.2 3.2 0.00 0.00 0.00 97 1015.2
20260510072310 10 141 1.6 1.6 0.00 0.00 0.00 97 1015.1
20260510071806 10 113 1.6 1.6 0.00 0.00 0.00 97 1015.0
20260510071303 10 111 0.0 0.0 0.00 0.00 0.00 97 1015.4
20260510070802 10 116 0.0 0.0 0.00 0.00 0.00 97 1015.3
20260510070258 10 119 0.0 0.0 0.00 0.00 0.00 97 1015.3
20260510065758 10 103 0.0 0.0 0.00 0.00 0.00 97 1015.0
20260510065255 10 102 1.6 1.6 0.00 0.00 0.00 97 1015.3
20260510064752 10 129 0.0 0.0 0.00 0.00 0.00 97 1014.7
20260510064250 10 131 1.6 1.6 0.00 0.00 0.00 97 1014.7
20260510063745 10 120 0.0 0.0 0.00 0.00 0.00 97 1014.8
20260510063242 10 116 0.0 0.0 0.00 0.00 0.00 97 1014.7
20260510062739 10 159 3.2 3.2 0.00 0.00 0.00 97 1014.7
20260510062234 10 146 1.6 3.2 0.00 0.00 0.00 97 1014.6
20260510061730 10 155 1.6 3.2 0.00 0.00 0.00 97 1014.6
20260510061227 10 124 0.0 1.6 0.00 0.00 0.00 96 1014.7
20260510060723 10 124 0.0 0.0 0.00 0.00 0.00 96 1014.5
20260510060220 10 107 0.0 0.0 0.00 0.00 0.00 96 1014.5
20260510055717 10 104 0.0 0.0 0.00 0.00 0.00 96 1014.7
20260510055215 10 99 0.0 0.0 0.00 0.00 0.00 96 1014.6
20260510054710 10 111 0.0 0.0 0.00 0.00 0.00 96 1014.8
20260510054206 10 105 0.0 0.0 0.00 0.00 0.00 96 1014.7
20260510053706 10 106 0.0 0.0 0.00 0.00 0.00 96 1014.8
20260510053203 10 107 0.0 0.0 0.00 0.00 0.00 96 1014.6
20260510052658 10 119 0.0 0.0 0.00 0.00 0.00 96 1014.6
20260510052154 10 128 0.0 0.0 0.00 0.00 0.00 96 1014.5
20260510051650 10 113 0.0 0.0 0.00 0.00 0.00 96 1014.3
20260510051147 10 118 0.0 0.0 0.00 0.00 0.00 96 1014.2
20260510050644 10 124 0.0 0.0 0.00 0.00 0.00 96 1014.6
20260510050142 10 136 0.0 0.0 0.00 0.00 0.00 96 1014.4
20260510045638 9 119 0.0 0.0 0.00 0.00 0.00 96 1014.5
20260510045135 10 130 0.0 0.0 0.00 0.00 0.00 96 1014.3
20260510044631 10 133 1.6 1.6 0.00 0.00 0.00 96 1014.3
20260510044128 10 130 0.0 0.0 0.00 0.00 0.00 96 1014.4
20260510043624 10 125 0.0 0.0 0.00 0.00 0.00 96 1014.4
20260510043121 10 121 0.0 0.0 0.00 0.00 0.00 96 1014.4
20260510042619 10 109 0.0 0.0 0.00 0.00 0.00 95 1014.2
20260510042114 10 126 0.0 0.0 0.00 0.00 0.00 96 1014.3
20260510041612 10 112 0.0 0.0 0.00 0.00 0.00 95 1014.4
20260510041109 10 117 0.0 0.0 0.00 0.00 0.00 95 1014.3
20260510040606 10 138 1.6 1.6 0.00 0.00 0.00 95 1014.4
20260510035558 10 149 1.6 1.6 0.00 0.58 0.58 95 1014.1
20260510035057 10 119 0.0 0.0 0.00 0.58 0.58 95 1014.1
20260510034556 10 138 1.6 1.6 0.00 0.58 0.58 95 1014.3
20260510034053 10 118 0.0 0.0 0.00 0.58 0.58 95 1014.2
20260510033549 11 146 1.6 1.6 0.00 0.58 0.58 95 1014.2
20260510033047 11 155 3.2 4.8 0.00 0.58 0.58 95 1014.0
20260510032543 11 126 0.0 1.6 0.00 0.58 0.58 95 1014.1
20260510032038 11 101 0.0 1.6 0.00 0.58 0.58 95 1014.0
20260510031533 11 155 0.0 1.6 0.00 0.58 0.58 95 1014.2
20260510031029 11 153 1.6 3.2 0.00 0.58 0.58 95 1014.3
20260510030525 11 111 0.0 1.6 0.00 0.58 0.58 95 1014.3
20260510030023 11 119 0.0 1.6 0.00 0.58 0.58 95 1014.5
20260510025520 11 120 3.2 4.8 0.00 0.58 0.58 95 1014.4
20260510025017 11 175 4.8 4.8 0.00 0.58 0.58 95 1014.4
20260510024514 11 145 1.6 3.2 0.00 0.58 0.58 95 1014.4
20260510024009 11 168 3.2 3.2 0.00 0.58 0.58 95 1014.4
20260510023500 11 147 1.6 1.6 0.00 0.58 0.58 95 1014.2
20260510022958 11 126 0.0 0.0 0.00 0.58 0.58 95 1014.4
20260510022457 11 169 3.2 3.2 0.00 0.58 0.58 95 1014.2
20260510021956 11 149 3.2 4.8 0.00 0.58 0.58 95 1014.2
20260510021454 11 173 4.8 4.8 0.00 0.58 0.58 95 1014.1
20260510020950 11 153 1.6 3.2 0.00 0.58 0.58 95 1014.0
20260510020445 11 128 0.0 1.6 0.00 0.58 0.58 95 1014.1
20260510015941 11 151 3.2 4.8 0.00 0.58 0.58 95 1014.1
20260510015437 11 94 4.8 6.4 0.00 0.58 0.58 95 1014.1
20260510014932 11 129 0.0 1.6 0.00 0.58 0.58 95 1014.2
20260510014430 11 164 4.8 4.8 0.00 0.58 0.58 94 1014.5
20260510013926 11 137 1.6 1.6 0.00 0.58 0.58 94 1014.3
20260510013421 10 126 0.0 0.0 0.00 0.58 0.58 94 1014.2
20260510012916 10 139 1.6 1.6 0.00 0.58 0.58 94 1014.1
20260510012412 10 120 0.0 0.0 0.00 0.58 0.58 94 1013.9
20260510011907 11 120 0.0 0.0 0.00 0.58 0.58 94 1013.8
20260510011402 11 132 1.6 1.6 0.00 0.58 0.58 94 1013.8
20260510010858 11 130 0.0 1.6 0.00 0.58 0.58 94 1013.8
20260510010356 11 117 0.0 0.0 0.00 0.58 0.58 93 1014.0
20260510005853 11 145 0.0 1.6 0.00 0.58 0.58 93 1013.8
20260510005349 11 116 0.0 0.0 0.00 0.58 0.58 93 1013.7
20260510004846 11 125 0.0 0.0 0.00 0.58 0.58 93 1013.8
20260510004344 11 124 0.0 0.0 0.00 0.58 0.58 93 1013.8
20260510003842 11 125 0.0 0.0 0.00 0.58 0.58 93 1013.8
20260510003338 11 131 0.0 1.6 0.00 0.58 0.58 93 1013.5
20260510002837 11 122 0.0 0.0 0.00 0.58 0.58 93 1013.4
20260510002334 11 155 1.6 1.6 0.00 0.58 0.58 92 1013.4
20260510001831 11 161 1.6 1.6 0.00 0.58 0.58 92 1013.3
20260510001329 11 126 0.0 0.0 0.00 0.58 0.58 92 1013.1
20260510000825 12 126 1.6 3.2 0.00 0.58 0.58 92 1013.2
20260510000322 12 164 1.6 3.2 0.00 0.58 0.58 92 1012.9
20260509235819 12 157 3.2 3.2 0.00 0.58 0.58 92 1013.0
20260509235316 12 131 3.2 3.2 0.00 0.58 0.58 92 1013.0
20260509234811 12 123 4.8 4.8 0.00 0.58 0.58 92 1013.0
20260509234308 12 152 3.2 4.8 0.00 0.58 0.58 92 1012.8
20260509233807 12 155 3.2 3.2 0.00 0.58 0.58 92 1012.9
20260509233304 12 175 6.4 6.4 0.00 0.58 0.58 92 1012.9
20260509232759 12 146 4.8 6.4 0.00 0.58 0.58 92 1013.1
20260509232257 12 96 4.8 6.4 0.00 0.58 0.58 92 1013.1
20260509231753 12 200 4.8 6.4 0.00 0.58 0.58 92 1013.0
20260509231250 12 149 1.6 3.2 0.00 0.58 0.58 92 1013.0
20260509230748 13 135 9.7 11.3 0.00 0.58 0.58 92 1013.1
20260509230245 13 158 4.8 4.8 0.00 0.58 0.58 92 1012.9
20260509225740 13 184 8.0 14.5 0.00 0.58 0.58 93 1012.9
20260509225236 13 94 3.2 4.8 0.00 0.58 0.58 93 1012.8
20260509224732 13 176 9.7 11.3 0.00 0.58 0.58 93 1013.1
20260509224230 13 180 3.2 6.4 0.00 0.58 0.58 93 1013.0
20260509223726 12 176 6.4 6.4 0.00 0.58 0.58 93 1013.0
20260509223223 12 163 4.8 4.8 0.00 0.58 0.58 93 1012.9
20260509222720 12 161 8.0 9.7 0.00 0.58 0.58 93 1012.6
20260509222215 12 180 4.8 4.8 0.00 0.58 0.58 94 1012.7
20260509221711 12 157 3.2 3.2 0.00 0.58 0.58 94 1012.9
20260509221207 12 173 11.3 12.9 0.00 0.58 0.58 93 1013.1
20260509220703 12 132 1.6 3.2 0.00 0.58 0.58 94 1013.0
20260509220200 12 130 3.2 3.2 0.00 0.58 0.58 94 1013.2
20260509215656 12 187 6.4 9.7 0.00 0.58 0.58 94 1013.3
20260509215152 12 159 8.0 9.7 0.00 0.58 0.58 94 1013.2
20260509214644 12 139 6.4 9.7 0.00 0.58 0.58 94 1013.3
20260509214141 12 151 6.4 9.7 0.00 0.58 0.58 94 1013.4
20260509213638 12 126 3.2 3.2 0.00 0.58 0.58 94 1013.4
20260509213133 12 183 8.0 9.7 0.00 0.58 0.58 94 1013.4
20260509212631 12 156 6.4 6.4 0.00 0.58 0.58 94 1013.4
20260509212128 12 165 8.0 11.3 0.00 0.58 0.58 94 1013.3
20260509211624 12 108 4.8 6.4 0.00 0.58 0.58 94 1013.4
20260509211120 12 139 3.2 6.4 0.00 0.58 0.58 94 1013.3
20260509210617 12 157 4.8 6.4 0.00 0.58 0.58 94 1013.5
20260509210115 12 146 4.8 4.8 0.00 0.58 0.58 94 1013.4
20260509205614 12 166 6.4 6.4 0.13 0.58 0.58 94 1013.7
20260509205104 12 141 3.2 3.2 0.13 0.58 0.58 94 1013.6
20260509204600 12 139 6.4 6.4 0.00 0.56 0.56 93 1013.9
20260509204056 12 111 3.2 4.8 0.18 0.56 0.56 93 1013.9
20260509203546 12 145 3.2 3.2 0.30 0.56 0.56 93 1014.0
20260509203045 12 108 3.2 3.2 0.13 0.53 0.53 93 1014.0
20260509202544 12 131 3.2 3.2 0.30 0.53 0.53 93 1014.1
20260509202040 12 120 1.6 1.6 0.36 0.51 0.51 93 1014.1
20260509201535 12 158 4.8 4.8 0.18 0.48 0.48 93 1014.3
20260509201033 12 136 0.0 0.0 0.13 0.46 0.46 93 1014.3
20260509200527 12 133 0.0 0.0 0.30 0.46 0.46 93 1014.3
20260509200024 12 134 3.2 3.2 0.18 0.43 0.43 93 1014.3
20260509195519 12 195 3.2 4.8 0.00 0.41 0.41 93 1014.5
20260509195014 12 131 3.2 3.2 0.13 0.41 0.41 93 1014.6
20260509194509 12 160 6.4 6.4 0.13 0.41 0.41 93 1014.5
20260509194006 12 168 3.2 4.8 0.13 0.41 0.41 93 1014.6
20260509193501 13 35 3.2 3.2 0.00 0.38 0.38 93 1014.7
20260509192957 12 139 1.6 1.6 0.18 0.38 0.38 93 1014.8
20260509192454 12 166 4.8 4.8 0.30 0.38 0.38 92 1014.8
20260509191949 13 52 1.6 3.2 0.13 0.36 0.36 92 1014.9
20260509191444 12 219 3.2 4.8 0.18 0.33 0.33 92 1015.1
20260509190940 13 156 3.2 4.8 0.30 0.33 0.33 92 1015.0
20260509190438 13 352 1.6 3.2 0.13 0.30 0.30 92 1015.1
20260509185935 13 133 3.2 3.2 0.18 0.28 0.28 92 1015.2
20260509185432 13 152 3.2 3.2 0.18 0.28 0.28 92 1015.2
20260509184929 13 197 3.2 4.8 0.00 0.25 0.25 92 1015.0
20260509184427 13 154 4.8 4.8 0.13 0.25 0.25 91 1015.0
20260509183923 13 110 1.6 1.6 0.13 0.25 0.25 91 1014.8
20260509183422 13 190 3.2 3.2 0.00 0.23 0.23 91 1014.8
20260509182920 13 270 3.2 3.2 0.18 0.23 0.23 91 1014.8
20260509182416 13 124 1.6 1.6 0.18 0.23 0.23 91 1014.5
20260509181914 13 160 1.6 3.2 0.18 0.20 0.20 90 1014.5
20260509181411 13 318 3.2 3.2 0.18 0.20 0.20 90 1014.6
20260509180908 13 144 1.6 1.6 0.13 0.18 0.18 90 1014.6